Flag for Jamaica Weather past 2 weeks in May Pen, Jamaica

Now
88 °F

Passing clouds.


Feels Like: 100 °F
Forecast: 76 / 93 °F
Wind: 8 mph from Southeast

Location: Kingston / Norman Manley

Current Time: Sep 2, 2015 at 11:01:01 AM

Latest Report: Sep 2, 2015 at 10:00 AM


Visibility: N/A

Pressure: 29.98 "Hg

Humidity: 70%

Dew point: 77 °F

Location of May PenLocation

Historic Weather in May Pen — Graph

°F

May Pen temperature yesterday

Maximum temperature yesterday: 90 °F (at 11:00 AM)
Minimum temperature yesterday: 82 °F (at 4:00 AM)
Average temperature yesterday: 86 °F

Past Weeks' High & Low Weather Summary

 TemperatureHumidityPressure
High93 °F (Aug 30, 1:00 PM)89% (Aug 24, 7:00 AM)30.01 "Hg (Aug 24, 7:00 AM)
Low81 °F (Aug 19, 6:00 AM)59% (Aug 18, 1:00 PM)29.80 "Hg (Aug 28, 2:00 PM)
Average86 °F72%29.91 "Hg
* Reported Aug 18 10:00 AM — Sep 2 10:00 AM, May Pen, Weather by CustomWeather, © 2015

Note: Actual official high and low records may vary slightly from our data, if they occured in-between our weather recording intervals... More about our weather records

Advertising

May Pen weather history for previous 24 hours

 ConditionsComfort  
Time TempWeatherWind HumidityBarometerVisibility
10:00 AM
Wed, Sep 2
88 °FPassing clouds.8 mph70%29.98 "HgN/A
9:00 AM86 °FPassing clouds.6 mph70%29.98 "HgN/A
8:00 AM86 °FPassing clouds.3 mph70%29.98 "HgN/A
7:00 AM84 °FPassing clouds.5 mph70%29.95 "HgN/A
6:00 AM82 °FPassing clouds.6 mph74%29.95 "HgN/A
5:00 AM84 °FPassing clouds.8 mph74%29.95 "HgN/A
4:00 AM84 °FPassing clouds.3 mph74%29.95 "HgN/A
3:00 AM84 °FPassing clouds.5 mph79%29.95 "HgN/A
2:00 AM84 °FPassing clouds.7 mph79%N/AN/A
1:00 AM82 °FPassing clouds.7 mph89%29.98 "HgN/A
12:00 AM84 °FPassing clouds.9 mph84%29.98 "HgN/A
11:00 PM
Tue, Sep 1
86 °FPassing clouds.7 mph79%29.98 "HgN/A
10:00 PM84 °FPassing clouds.9 mph84%29.98 "HgN/A
9:00 PM86 °FPassing clouds.12 mph79%29.98 "HgN/A
8:00 PM86 °FPassing clouds.15 mph79%29.95 "HgN/A
7:00 PM86 °FPassing clouds.15 mph84%29.92 "HgN/A
6:00 PM86 °FPassing clouds.20 mph79%29.92 "HgN/A
4:00 PM88 °FPassing clouds.21 mph75%29.89 "HgN/A
3:00 PM88 °FPassing clouds.20 mph75%29.92 "HgN/A
2:00 PM90 °FPassing clouds.22 mph71%29.92 "HgN/A
1:00 PM90 °FPassing clouds.21 mph71%29.95 "HgN/A
12:00 PM90 °FPassing clouds.16 mph71%29.98 "HgN/A
11:00 AM90 °FPassing clouds.17 mph71%29.98 "HgN/A
Weather by CustomWeather, © 2015

See weather overviewHow to use our weather pages